FENGYUN 1C DEB, 29956

Orbit data source: Space-Track

FENGYUN 1C DEB, 29956 is space debris in SSO originally from a launch on Mon, 10 May 1999 UTC launched from the Taiyaun Space Center, China (TSC). Fengyun 1C debris stems from the Chinese weather satellite Fengyun-1C, which was intentionally destroyed by a Chinese anti-satellite missile in 2007. This event dramatically increased the amount of space debris, with thousands of trackable fragments posing hazards to satellites and human spaceflight. The Fengyun 1C debris cloud has become a focal point in discussions about space sustainability and the need for international regulations to prevent the creation of new debris.

Loading next visibility...
Identifier
29956, 1999-025KE
Orbit
SSO
Country
Flag of CNCN / PRC
Related business
Manufacturer
Unknown
Mission
Spacecraft
Bus & Motor
Unknown
Mass
Unknown
Launch date (UTC)
1999-05-10 (27 years ago)
Launch vehicle
Unknown
Launch site
Taiyaun Space Center, China (TSC)
Object type
Payload
Rocket body
Debris
Shape & HBR
Unknown shape, 0.8 m
Radar Cross Section
Medium (>0.1 m² and <1 m²)

Expand to show TLE details & history
Last TLE update: 1 week ago

TLE from 1 week ago
0 FENGYUN 1C DEB
1 29956U 99025KE  26155.03404858  .00000095  00000-0  82572-4 0  9999
2 29956  98.7698 183.6988 0052392 249.0587 173.0831 14.06210651994853
Epoch: 2026-06-04T00:49Z
TLE epoch observation values (Epoch: 2026-06-04T00:49:01.797Z)
Latitude
61.06208°
Longitude
-97.15754°
Altitude
920.477 km
Speed
7.378 km/s
True Right ascension
11h 10m 20s
True Declination
60° 55' 10"
Sunlit
Object was in daylight at epoch
Visualization orbit readout
Latitude
Unknown
Longitude
Unknown
Altitude
Unknown
Speed
Unknown
Apparent Right ascension
Unknown
Apparent Declination
Unknown
Sunlit
N/A
Visualization observer readout
Local Sidereal Time
00:37:20
Azimuth
Unknown
Elevation
Unknown
Doppler factor
Unknown
Orbital elements
Apogee altitude
907.52 km
Perigee altitude
831.576 km
Semi-major axis
7,247.685 km
Eccentricity
0.00524
Inclination
98.7698°
RAAN
183.6988°
Arg. of periapsis
249.0587°
True anomaly
173.15493°
Mean anomaly
173.0831°
Eccentric anomaly
173.11906°
Mean motion
3.51758 °/min
Orbital period
102.34 mins
BSTAR
0.000082572
Loading maneuver chart data...
Computing Atmospheric mass density...
Loading historical data...
Loading historical data...
Loading historical data...
Loading historical data...
Loading historical data...
Loading historical data...
Loading historical data...

Documentation

Showing up to 5 results
|